Regional Weather Roundup
Issued by NWS Raleigh/Durham, NC

Home | Current Version | Previous Version | Text Only | Print | Product List | Glossary On
Versions: 1 2 3 4 5 6 7 8 9 10 11 12 13 14 15 16 17 18 19 20 21 22 23 24 25 26 27 28 29 30 31 32 33 34 35 36 37 38 39 40 41 42 43 44 45 46 47 48 49 50
000
ASUS42 KRAH 021004
RWRRAH
NORTH CAROLINA WEATHER ROUNDUP
NATIONAL WEATHER SERVICE RALEIGH NC
600 AM EDT THU JUL 02 2015

NOTE: "FAIR" INDICATES FEW OR NO CLOUDS BELOW 12,000 FEET WITH NO
SIGNIFICANT WEATHER AND/OR OBSTRUCTIONS TO VISIBILITY.

NCZ001-053-055-056-065-067-021100-
WESTERN NORTH CAROLINA

CITY           SKY/WX    TMP DP  RH WIND       PRES   REMARKS
ASHEVILLE      CLOUDY    66  62  87 S3        30.02R
JEFFERSON      NOT AVBL
HICKORY        CLOUDY    69  66  90 NW3       29.95S
RUTHERFORDTON  NOT AVBL
MOUNT AIRY     NOT AVBL
$$

NCZ021-022-025-041-071-084-088-021100-
CENTRAL NORTH CAROLINA

CITY           SKY/WX    TMP DP  RH WIND       PRES   REMARKS
CHARLOTTE      CLOUDY    72  63  73 SW3       29.95S
GREENSBORO     CLOUDY    71  66  84 SW6       29.92F
WINSTON-SALEM  MOCLDY    71  66  84 W3        29.94S
RALEIGH-DURHAM CLOUDY    74  70  87 SW7       29.92R
FORT BRAGG     LGT RAIN  76  70  83 SW7       29.91S
FAYETTEVILLE   CLOUDY    75  71  87 SW8       29.93R
$$

NCZ011-015-027-028-043-044-047-080-103-021100-
NORTHEASTERN NORTH CAROLINA

CITY           SKY/WX    TMP DP  RH WIND       PRES   REMARKS
ROANOKE RAPIDS NOT AVBL
ROCKY MT-WILSO CLOUDY    75  71  87 S6        29.90R
ELIZABETH CITY NOT AVBL
MANTEO         NOT AVBL
CAPE HATTERAS  CLEAR     79  75  87 SW9       29.94S
$$

NCZ078-087-090-091-093-098-101-021100-
SOUTHEASTERN NORTH CAROLINA

CITY           SKY/WX    TMP DP  RH WIND       PRES   REMARKS
LUMBERTON      CLOUDY    76  70  82 SW9       29.94R
GOLDSBORO      CLOUDY    75  72  88 SW5       29.89S
NEW BERN       MOCLDY    75  71  87 SW6       29.93F
CHERRY POINT   CLOUDY    75  71  87 S3        29.94S
BEAUFORT       CLEAR     79  76  90 SW10      29.93S
JACKSONVILLE   PTCLDY    74  70  87 SW5       29.92S
WILMINGTON     PTCLDY    77  71  82 SW8       29.94S
$$



USA.gov is the U.S. government's official web portal to all federal, state and local government web resources and services.